Temp
7 7 7 7 7 7 7 7 7 7 7 7 7 7 7 7 7 8 8 8 8 8 8 8 8 8 8 8 8 8 9 10 10 8 9 17 20 19 20 20 20 18 18 18 18 18 17 17 17 16 18 18 18 19 19 19 20 20 20 20 20 20 20 21 22 22 22 23 24 23 23 24 25 25 24 23 21 20 20 19 19 19 19 20 19 19 18 18
7 7 7 7 7 7 7 7 7 7 7 7 7 7 7 7 7 7 8 8 8 8 8 8 8 8 8 8 8 8 9 9 9 9 14 20 20 19 19 19 19 19 18 18 18 18 17 17 16 16 18 18 18 19 19 20 20 20 19 19 21 20 20 21 22 22 22 23 23 23 23 24 24 24 24 24 22 20 20 20 20 20 19 19 18 18 18 18
6 7 7 7 7 7 7 7 7 7 7 7 7 7 7 7 7 7 7 7 8 8 8 8 8 8 8 8 8 9 9 9 12 16 19 20 20 20 19 19 19 19 19 19 19 19 19 18 16 17 19 19 18 19 19 20 20 20 19 20 21 20 21 21 21 22 23 23 23 23 23 23 24 25 24 24 21 20 20 20 20 20 20 19 19 18 18 18
6 7 7 7 7 7 7 7 7 7 7 7 7 7 7 7 7 7 7 7 7 8 8 8 8 8 8 8 9 10 9 12 18 21 20 20 20 20 19 18 19 19 20 19 19 19 19 17 16 18 19 19 18 18 19 20 20 20 20 21 20 20 21 22 22 23 23 23 22 23 23 23 25 25 24 23 22 21 20 20 20 20 20 19 19 18 18 18
6 7 7 7 7 7 7 7 7 7 7 7 7 7 7 7 7 7 7 7 7 7 8 8 7 8 8 8 10 11 12 17 21 20 20 21 20 20 19 18 19 19 19 19 19 18 18 17 17 19 19 19 19 19 19 20 20 20 20 21 20 20 21 22 23 23 23 23 22 23 23 24 24 25 24 23 24 23 21 21 21 20 19 19 19 18 18 18
6 6 7 7 7 7 7 7 7 7 7 7 7 7 7 8 7 8 7 7 7 7 8 7 7 7 8 10 11 11 15 20 21 19 21 21 21 21 19 18 18 18 18 19 18 18 18 17 18 19 19 19 19 19 19 20 20 20 21 21 20 21 21 22 23 23 23 22 22 23 23 23 23 24 24 23 24 24 22 21 21 20 19 19 19 18 18 18
6 6 7 7 7 7 7 7 7 7 7 7 7 7 7 7 7 7 7 7 7 7 7 7 7 7 8 10 11 12 15 18 20 20 21 20 21 21 19 18 18 18 18 18 17 17 18 18 18 19 19 19 19 19 20 20 21 20 21 21 21 21 21 22 22 23 22 21 23 22 22 23 23 24 24 24 24 22 21 21 20 20 19 19 19 18 18 18
6 6 6 6 6 7 7 7 7 7 7 7 7 7 7 7 7 7 7 7 7 8 7 7 7 7 8 10 12 14 15 18 20 20 20 20 21 20 20 19 17 18 18 18 17 17 18 18 18 19 19 20 19 20 20 20 21 20 20 21 22 22 22 22 22 22 22 22 22 22 23 23 23 24 24 24 23 20 20 20 20 19 19 19 18 18 18 18
6 6 6 6 6 6 7 7 7 7 7 7 7 7 7 7 7 7 7 7 8 8 7 7 7 7 8 9 11 16 18 19 20 19 19 19 20 20 20 19 18 17 17 18 18 18 18 19 19 19 20 20 19 20 20 20 21 21 21 21 22 22 22 22 22 23 23 22 22 23 24 24 23 23 24 23 21 20 20 20 20 19 19 19 18 18 17 17
6 6 6 6 6 6 7 7 7 7 7 7 7 7 8 8 8 8 8 8 8 8 7 7 7 8 9 9 12 16 19 20 19 19 19 19 20 20 19 19 18 17 17 17 18 18 19 19 19 19 20 20 20 20 20 21 21 21 22 22 22 22 22 22 22 23 22 22 23 23 24 24 23 23 25 22 20 20 20 19 20 19 19 19 18 18 17 17
6 6 6 6 6 6 6 7 7 7 8 7 8 9 10 10 10 10 9 9 9 8 7 7 7 8 8 9 13 16 19 19 19 19 19 19 19 19 19 19 18 18 18 17 17 18 19 19 18 19 20 20 20 20 20 21 21 22 22 22 22 22 21 22 23 23 22 23 24 23 24 24 22 24 26 22 19 20 19 19 19 19 19 19 18 18 17 16
6 6 6 6 6 6 6 6 6 7 7 8 9 11 11 12 11 11 9 9 10 9 7 7 7 8 8 9 12 16 19 19 19 19 18 18 18 18 19 19 19 19 19 18 17 18 19 19 20 20 20 20 20 20 21 21 21 22 22 21 22 22 22 22 23 23 23 24 25 24 24 24 24 25 24 21 19 20 19 19 20 20 20 19 18 18 17 16
6 6 7 6 7 6 6 6 6 7 8 9 10 12 12 12 12 11 10 9 9 8 7 7 7 7 9 12 15 18 19 18 18 19 19 19 18 18 18 18 19 19 19 19 17 18 19 20 20 20 20 20 20 20 21 21 21 22 21 21 22 22 22 22 22 22 22 24 25 24 23 24 27 24 21 20 20 19 19 19 20 20 20 19 18 18 17 16
6 6 6 7 7 6 6 6 6 7 8 9 11 12 12 12 13 12 10 9 9 8 7 7 7 7 9 13 17 19 19 18 18 18 20 20 18 18 19 18 18 18 19 18 18 19 19 19 20 20 20 20 21 20 20 20 20 21 21 21 20 20 22 23 22 21 23 23 24 25 22 23 27 23 20 20 20 19 19 19 20 20 19 18 18 18 17 16
6 6 6 6 6 6 6 7 7 7 8 10 11 12 12 13 13 12 10 9 9 8 7 7 7 8 10 14 17 18 18 17 17 19 20 20 19 19 19 19 18 18 18 18 18 19 19 19 19 20 20 20 20 20 20 20 20 20 21 20 19 19 21 23 22 21 24 24 23 24 22 23 26 22 20 20 20 20 20 19 20 19 19 18 18 18 17 16
6 6 6 6 6 6 7 7 7 7 7 10 12 12 12 12 12 11 11 9 8 8 8 8 8 8 12 16 18 18 18 17 19 20 20 19 20 20 20 19 18 18 18 18 19 19 19 19 20 20 20 20 20 20 19 20 20 19 19 20 19 19 20 21 23 22 22 23 23 24 23 24 25 21 20 20 20 20 19 20 20 19 19 18 18 18 17 17
5 6 6 6 7 7 7 8 8 7 8 10 12 13 12 11 11 10 10 9 8 8 8 9 8 8 14 18 18 19 19 18 20 20 20 20 20 19 20 19 18 18 17 18 19 19 19 19 20 20 19 19 19 20 19 19 19 19 19 20 19 19 19 20 23 22 22 23 23 23 23 25 24 20 20 20 20 20 19 20 20 19 19 18 18 18 17 17
6 5 6 6 7 7 8 8 8 8 9 11 12 12 12 10 10 10 9 8 8 8 9 9 8 12 16 18 18 18 19 19 20 20 20 20 19 19 20 19 18 18 18 19 19 19 19 19 19 19 19 19 18 19 19 18 19 19 19 20 19 19 19 19 21 22 22 22 23 22 23 24 24 20 20 20 20 20 20 20 20 19 19 18 18 17 17 17
5 5 5 6 6 7 7 7 8 9 10 12 12 11 11 10 9 9 8 8 9 12 13 11 11 16 19 17 17 18 19 20 20 20 20 19 18 18 19 19 19 19 19 19 19 18 19 19 18 19 18 18 19 19 19 19 20 20 19 19 19 19 19 19 20 21 22 22 22 22 22 24 24 22 20 20 20 20 20 20 20 19 19 18 18 18 17 17
5 5 5 5 6 6 6 7 8 9 10 12 12 11 11 11 12 11 9 9 11 14 16 14 13 16 17 16 17 18 19 20 20 20 20 19 18 18 19 19 19 20 19 19 19 18 19 19 18 18 18 19 19 20 20 19 19 19 19 19 19 19 19 19 20 21 21 21 22 23 22 22 23 23 20 20 20 20 20 20 20 19 19 18 18 18 17 17
5 5 5 5 5 5 5 6 8 9 10 10 11 11 13 13 13 13 12 12 12 12 14 14 14 14 16 17 17 18 18 19 19 19 20 20 19 19 19 19 19 19 18 19 19 18 19 19 18 18 19 20 20 19 19 19 19 19 19 19 19 18 18 19 20 21 21 21 22 22 22 22 23 23 21 19 20 20 20 20 20 19 19 18 18 18 18 18
5 5 5 5 5 5 6 6 8 10 10 10 10 10 11 12 13 13 12 13 13 12 12 13 13 14 15 16 16 17 17 17 19 19 19 20 19 19 19 19 19 18 18 18 19 18 18 18 18 18 19 19 19 18 18 18 19 19 18 18 18 18 18 19 19 20 20 20 22 22 21 22 22 21 20 19 19 20 20 20 20 19 19 18 18 18 18 18
5 5 5 5 5 5 6 7 9 10 10 9 7 8 11 13 13 12 12 12 13 13 13 12 13 13 14 15 15 16 16 16 18 19 19 19 19 19 19 19 18 18 18 18 18 18 18 18 18 19 19 19 18 17 17 18 18 18 18 18 18 18 18 19 20 20 20 20 21 21 20 21 21 20 20 19 19 20 20 20 20 20 19 19 18 18 18 18
5 5 5 5 5 5 7 8 9 9 9 8 8 10 12 13 12 12 12 13 14 14 13 13 14 14 15 16 16 17 17 17 18 19 20 20 19 19 19 19 18 18 18 19 18 18 18 18 19 18 18 18 19 18 17 18 18 18 18 18 18 18 19 19 19 20 21 20 20 20 20 21 20 21 22 20 18 19 20 19 19 19 19 19 19 19 18 18
5 5 5 5 5 6 8 8 8 9 9 9 10 12 12 12 12 11 12 14 15 15 15 15 15 15 16 17 17 17 17 17 18 19 20 20 20 19 19 19 19 18 18 18 18 18 18 18 19 19 18 18 19 19 18 18 18 18 18 18 18 19 19 19 19 19 20 21 20 20 21 21 20 21 22 19 18 18 19 19 19 19 19 18 18 18 18 18
5 5 5 5 5 6 9 9 8 8 9 9 12 13 12 12 12 11 13 14 15 17 17 16 16 17 18 16 16 17 18 18 18 19 20 20 21 20 19 19 19 19 18 18 18 18 18 19 19 19 19 18 18 19 18 18 18 18 19 19 19 19 19 19 18 19 20 20 19 19 20 21 21 21 20 18 18 18 18 19 19 19 19 18 18 18 18 18
5 5 5 5 5 6 8 9 7 8 11 12 12 12 12 13 12 12 13 14 16 18 18 17 17 19 19 17 17 18 19 19 18 18 20 20 21 21 20 19 19 19 18 18 18 18 18 19 19 19 19 18 18 18 18 17 18 19 19 20 19 18 19 18 18 19 20 20 19 19 20 20 21 20 18 17 18 18 18 18 18 19 19 18 19 18 18 18
5 5 5 5 5 4 5 6 5 7 12 14 12 13 13 13 12 13 14 16 17 19 19 18 19 19 18 17 17 19 19 19 19 19 19 20 21 21 20 19 19 19 19 19 18 18 19 19 19 19 19 18 18 19 18 17 19 20 20 20 20 19 19 19 19 19 19 19 20 19 19 20 21 20 18 17 18 17 17 18 18 19 19 19 19 18 18 18
4 5 5 5 5 5 5 5 5 8 12 13 12 13 13 12 13 14 14 16 18 19 20 20 19 19 18 16 17 18 18 20 20 19 19 20 21 21 20 19 20 19 19 19 19 19 19 20 20 19 19 19 20 20 19 18 19 20 19 19 19 19 19 18 19 19 19 19 20 20 20 20 21 20 19 18 18 17 17 18 18 19 19 19 19 18 18 18
4 5 5 5 5 6 5 5 8 11 12 12 13 13 13 13 14 14 14 16 18 18 19 19 19 19 18 17 17 18 18 19 20 19 19 20 20 21 20 19 20 19 19 19 19 19 19 19 19 20 20 20 20 19 19 19 20 20 20 20 20 19 19 19 18 19 20 19 20 20 20 21 20 20 19 19 19 18 18 18 18 19 19 19 19 18 18 18
4 5 5 5 5 5 5 7 11 12 12 12 12 13 14 14 14 14 15 16 17 17 18 18 18 18 17 17 18 18 18 19 20 19 19 20 20 20 20 19 19 19 18 19 19 18 19 19 19 21 21 21 21 20 19 19 19 20 20 20 20 19 19 19 19 19 19 19 20 18 18 20 21 20 19 19 18 17 18 18 18 19 19 18 18 18 17 17
5 5 5 5 5 5 6 10 12 11 11 12 11 13 15 14 13 13 15 16 16 16 17 17 17 17 16 17 18 19 19 20 20 19 19 19 19 19 19 19 19 18 18 18 18 18 19 19 20 21 21 21 21 20 19 18 18 19 20 20 20 19 19 19 19 19 19 19 20 18 17 20 20 20 18 17 17 16 17 18 19 19 19 18 18 17 17 17
6 7 7 7 6 6 8 11 11 10 11 11 12 14 15 14 13 14 15 16 16 16 16 16 16 16 16 17 18 19 19 20 20 20 19 19 19 18 19 19 19 19 18 17 18 19 19 19 19 20 21 21 21 21 20 19 18 18 19 20 20 19 18 18 18 17 18 20 19 17 18 20 20 19 17 16 16 16 16 17 19 19 19 18 18 17 17 17
8 9 10 10 9 10 11 11 10 10 10 11 13 14 14 13 14 14 14 14 15 16 16 16 15 16 17 18 19 19 19 19 20 20 19 19 18 18 18 18 18 19 19 17 17 18 19 19 20 21 21 21 21 21 21 21 18 18 19 20 20 20 19 19 19 19 19 20 19 18 19 20 20 19 17 17 17 17 16 17 18 19 18 18 17 16 17 16
10 10 11 11 11 12 12 11 10 9 9 11 14 14 13 14 13 13 13 14 15 15 15 15 15 17 18 18 18 18 18 19 19 19 19 18 18 18 18 18 18 19 19 18 17 17 18 19 21 21 20 20 21 22 21 21 19 18 18 20 20 21 21 19 18 19 19 19 19 18 18 18 18 18 17 18 18 17 17 17 18 18 17 17 17 16 16 16
11 11 11 11 12 13 13 12 10 9 10 13 14 13 13 14 13 13 14 14 14 14 14 15 16 17 17 17 17 18 18 19 18 18 19 18 18 18 18 19 18 19 20 19 18 18 18 19 20 20 20 21 22 22 21 22 21 19 19 21 20 20 21 20 17 16 17 19 19 17 18 18 18 18 18 18 18 17 18 18 17 17 17 17 17 16 16 15
9 10 11 12 13 13 13 13 11 10 12 14 14 13 12 13 13 13 14 14 14 14 14 15 16 16 16 16 17 17 18 18 18 19 18 18 19 19 19 19 19 19 20 20 19 18 18 20 20 20 22 22 20 20 21 21 21 20 20 21 19 18 20 20 19 18 18 20 19 16 17 18 19 19 18 17 18 17 17 18 17 17 17 17 17 16 15 15
6 8 11 12 13 13 13 13 11 11 13 14 13 12 11 12 13 13 14 14 14 14 14 14 15 16 15 15 16 17 18 18 18 18 18 18 18 19 19 20 19 19 20 20 20 19 18 20 20 20 21 22 20 20 21 20 20 21 21 21 20 20 20 19 19 20 19 19 18 17 16 17 18 19 17 16 16 16 16 16 16 16 16 16 16 15 15 15
5 9 12 13 13 13 13 12 12 13 14 13 13 12 11 12 13 14 14 14 13 14 14 14 15 15 15 15 16 16 17 18 17 18 18 18 18 18 19 19 19 18 18 20 20 19 18 19 20 19 19 20 20 20 21 21 20 20 20 20 20 20 20 19 19 20 20 19 18 18 17 18 18 16 15 15 15 15 16 15 15 15 15 15 14 14 14 14
7 12 13 12 13 13 12 12 13 13 14 12 12 12 12 12 13 14 14 14 14 14 14 14 15 15 15 15 16 16 17 17 17 17 18 18 18 19 18 19 19 18 18 19 19 18 18 18 19 20 19 19 20 19 19 20 20 21 21 20 20 19 19 19 19 18 19 19 18 18 18 19 17 14 14 15 15 15 16 15 15 15 14 14 14 14 14 14
8 13 13 12 13 12 12 13 12 12 12 11 11 11 12 13 13 13 14 14 14 15 15 14 15 15 15 15 16 16 17 17 17 17 17 18 18 19 18 18 19 18 18 20 19 19 19 18 18 20 20 20 20 18 17 18 18 20 21 20 20 19 19 20 19 17 18 19 18 18 20 19 15 14 15 15 14 15 15 15 15 14 14 14 14 14 14 14
10 13 12 12 12 12 12 13 11 10 11 11 11 11 12 13 13 13 14 14 14 15 15 14 15 15 15 15 16 16 17 17 17 17 17 17 17 18 18 17 18 18 19 19 18 18 18 18 18 19 19 18 18 18 17 17 17 18 19 18 18 19 20 21 21 18 17 17 16 17 20 18 14 14 15 15 15 15 15 15 15 14 14 14 14 14 14 14
13 12 11 11 12 12 12 12 11 11 12 11 11 11 11 12 12 13 13 13 14 14 14 15 15 15 15 16 16 16 17 17 17 17 17 17 17 17 17 17 17 18 18 19 18 17 18 17 18 18 18 18 19 19 18 17 17 18 17 16 17 18 19 19 19 18 18 18 17 18 20 18 14 14 15 15 14 14 14 14 14 14 14 14 14 14 14 14
12 11 11 12 12 13 12 12 12 11 11 11 11 11 11 11 12 12 12 13 13 14 14 14 15 15 15 15 16 16 16 17 17 16 16 16 17 17 16 17 18 18 17 18 18 19 18 17 17 17 17 17 18 19 19 18 18 18 16 15 16 16 17 18 17 17 19 18 17 20 20 17 14 14 14 14 14 14 14 14 14 15 14 14 13 13 13 13
11 11 12 12 12 12 12 11 12 11 11 10 10 11 11 11 12 12 12 12 13 13 13 14 14 14 14 14 15 15 16 16 16 16 16 16 16 17 16 16 17 17 17 17 17 18 18 16 16 17 17 17 17 17 18 17 17 16 16 16 15 15 17 19 18 19 20 16 15 19 20 16 14 14 14 14 14 14 14 13 13 13 13 13 12 11 11 11
13 12 12 12 12 12 11 10 10 11 11 10 11 11 10 11 12 12 12 12 13 13 12 13 13 14 13 14 15 16 15 15 16 15 15 15 15 16 16 16 17 17 17 17 17 17 16 14 14 16 16 16 16 15 14 15 15 16 16 16 14 13 15 18 19 20 19 16 16 17 16 14 15 15 14 14 14 14 13 12 12 11 11 11 10 9 9 9
13 13 12 12 12 12 12 10 10 11 10 10 11 11 10 11 11 12 12 12 12 12 12 12 13 13 13 13 15 15 14 14 15 14 14 14 14 15 15 16 17 17 17 17 16 16 16 14 13 13 13 13 13 13 13 14 14 13 13 13 13 12 14 18 20 18 17 18 18 15 13 14 15 14 14 13 13 12 11 11 10 10 10 9 9 9 9 8
12 12 11 11 12 12 12 11 11 11 10 10 10 10 11 11 11 12 12 12 12 12 12 13 12 12 11 11 13 14 14 14 14 13 13 13 14 14 15 16 16 16 17 17 15 16 16 14 13 13 13 12 12 12 12 13 12 10 10 11 11 11 13 17 16 13 14 18 18 15 13 14 13 11 11 11 10 10 10 10 10 9 9 8 8 8 8 8
11 12 10 10 11 12 10 10 10 11 11 10 10 11 11 11 11 11 11 11 12 12 12 12 12 12 11 11 12 13 13 13 13 13 12 12 13 13 15 16 16 16 17 17 15 15 15 14 13 13 13 13 12 12 12 12 12 11 10 10 11 11 11 13 12 11 13 16 15 13 13 11 10 10 9 9 10 9 9 9 9 8 8 7 7 7 7 7
11 12 11 11 11 10 10 10 10 11 11 10 10 11 11 11 11 11 11 11 12 12 11 12 12 11 11 12 13 13 12 13 13 12 11 12 13 13 14 15 16 16 16 16 15 15 15 14 12 13 14 13 12 12 13 13 13 13 11 9 10 12 12 12 12 12 12 13 12 12 12 10 9 9 9 9 9 9 8 8 8 7 7 7 7 7 7 7
9 10 10 12 12 9 10 10 9 10 11 10 11 11 11 11 11 10 11 12 12 12 12 12 12 11 11 12 12 12 12 12 13 13 12 11 12 13 13 13 14 15 16 15 15 15 16 13 12 13 14 13 12 12 13 14 14 14 12 9 9 11 11 11 11 10 11 13 12 13 13 11 9 8 8 8 7 8 7 7 7 7 7 7 7 6 6 6
9 9 9 12 11 9 9 10 9 10 11 10 10 10 11 11 10 10 11 12 12 12 12 12 12 11 11 12 12 12 12 12 13 13 13 12 11 11 11 12 12 13 15 15 14 14 14 14 13 14 14 12 11 12 13 14 15 14 12 9 9 9 10 11 10 9 9 11 12 13 12 10 8 8 7 7 6 7 6 6 7 7 6 7 6 6 6 6
Height
792 791 790 789 788 788 787 786 785 784 783 782 781 781 780 779 779 778 778 777 776 775 774 773 772 771 770 769 767 766 764 762 759 760 758 749 745 746 746 747 748 750 752 753 755 756 759 761 762 763 764 766 768 768 769 768 769 772 779 786 784 781 780 776 773 770 768 764 759 759 758 757 756 751 747 748 755 760 758 756 755 754 752 753 753 756 759 761
791 790 789 788 787 787 786 785 784 784 783 782 781 780 779 779 778 778 777 777 776 775 774 773 772 771 770 768 767 766 763 761 758 756 751 745 745 745 745 747 748 749 750 752 754 755 758 761 762 764 765 768 769 769 770 769 769 774 783 787 779 775 773 769 767 766 765 763 759 759 759 757 756 754 749 752 761 763 762 761 759 759 758 756 756 758 760 760
790 790 789 788 787 786 785 785 784 783 782 782 781 780 779 778 778 778 777 776 776 775 774 773 772 771 769 768 766 765 763 760 755 749 745 744 745 744 744 746 747 748 750 752 754 755 756 759 761 764 766 769 770 770 771 770 771 774 780 783 774 769 769 766 766 764 763 761 761 760 759 758 755 752 751 754 762 765 765 762 760 761 760 758 757 758 759 761
790 789 788 787 787 785 785 784 783 783 782 781 781 780 779 778 778 777 777 776 776 775 774 773 772 770 769 767 766 764 762 759 751 745 744 744 744 744 744 746 747 749 751 752 754 756 756 758 761 763 766 770 771 771 772 771 771 775 776 775 769 768 768 764 763 762 760 760 761 760 759 758 752 750 752 756 762 765 762 756 754 755 755 756 757 757 759 760
790 789 788 787 786 785 784 784 783 782 782 781 781 780 779 778 778 777 776 776 775 775 774 773 771 770 769 767 766 764 762 758 748 744 745 744 744 743 744 746 748 750 751 752 753 756 757 759 761 763 766 770 772 772 773 770 769 774 771 767 766 768 768 763 761 760 759 759 760 760 760 756 751 751 752 755 758 757 753 749 749 750 749 751 754 756 758 759
789 788 788 787 786 785 784 783 782 782 781 781 780 779 779 778 777 777 776 775 775 774 773 772 771 770 768 766 766 764 763 757 747 744 745 744 744 743 745 747 749 750 751 752 753 756 758 760 763 765 767 769 773 772 772 769 768 774 769 763 765 766 767 763 759 758 758 761 760 759 758 755 756 753 750 752 750 747 745 744 747 750 749 749 751 755 757 758
789 788 787 786 786 785 784 783 782 781 780 780 780 779 778 777 776 776 775 774 774 773 772 772 771 769 767 766 765 764 765 756 745 745 745 744 744 743 745 747 749 750 751 752 753 756 758 761 763 766 768 769 772 771 770 768 767 772 769 763 764 764 764 761 758 757 758 761 758 756 756 755 758 754 749 748 744 744 744 743 746 750 752 753 754 756 757 759
788 787 786 786 785 784 783 782 781 780 779 779 778 778 777 776 775 774 774 773 772 772 772 771 770 769 768 767 766 765 763 754 744 745 744 743 744 743 745 747 749 750 751 752 753 755 757 761 762 764 768 769 769 769 768 769 769 770 767 763 762 761 760 758 758 757 756 756 755 755 754 753 754 752 749 746 744 746 745 745 747 750 753 755 756 757 758 760
788 787 786 785 784 783 783 781 780 779 778 778 777 776 776 775 774 774 773 772 771 771 770 770 770 769 769 768 768 764 755 748 745 745 743 743 744 744 746 747 749 750 751 753 753 755 756 759 761 761 765 766 767 767 766 769 770 765 763 762 761 760 758 757 757 754 754 754 753 754 751 750 750 749 749 745 745 746 746 749 750 751 754 755 756 758 759 762
788 787 786 785 784 783 782 781 779 778 777 776 776 775 774 774 773 772 772 771 771 770 770 770 770 769 770 768 770 764 750 745 747 745 744 745 744 746 747 747 749 750 751 753 753 754 754 756 758 758 761 764 765 766 766 767 766 761 760 760 759 760 758 758 757 753 753 752 750 753 751 749 750 750 749 746 746 747 748 752 752 753 755 756 757 759 761 764
787 786 786 784 784 782 781 780 778 777 776 775 775 774 773 772 772 771 771 771 770 770 769 770 769 769 770 770 771 763 748 746 747 745 746 746 746 748 748 749 750 750 751 753 753 754 754 755 756 758 761 763 763 765 765 762 761 759 759 760 758 759 758 757 755 752 753 750 746 750 749 749 751 750 746 745 747 747 750 754 754 755 756 757 759 760 763 766
787 786 785 784 783 782 781 780 778 777 775 774 774 772 772 771 771 770 770 769 769 769 769 769 770 769 770 771 768 756 746 747 746 746 747 746 747 748 749 750 749 750 751 752 754 754 755 755 755 758 760 761 764 766 763 759 760 758 759 763 760 758 757 755 753 751 752 749 743 747 752 751 750 748 744 744 748 749 752 755 755 756 757 758 760 762 766 770
787 785 784 784 782 781 780 779 778 776 775 774 772 771 771 770 770 769 768 768 767 767 768 769 769 769 770 766 755 746 746 747 746 745 746 745 746 747 747 748 749 750 750 751 753 754 755 755 755 757 758 760 764 764 760 759 760 760 760 764 764 764 761 754 753 753 752 749 742 747 761 755 744 745 746 745 747 750 755 756 755 756 757 759 761 763 766 770
787 785 784 783 782 781 780 778 777 775 774 773 771 770 769 769 768 766 766 765 765 767 767 769 769 769 770 759 745 743 745 745 744 743 742 743 744 745 745 746 747 749 750 751 753 754 754 755 756 758 758 759 761 760 761 763 763 762 762 765 771 774 766 753 753 755 751 748 742 747 765 757 741 746 748 744 745 749 754 756 756 756 758 760 761 764 766 770
787 785 784 783 782 780 779 778 776 774 773 771 770 769 768 767 766 764 764 763 764 766 766 769 769 769 769 755 742 742 743 742 742 739 740 741 742 743 744 745 746 748 750 752 753 754 754 755 757 759 759 758 759 763 767 767 766 767 768 772 778 778 771 757 752 755 751 748 744 749 763 755 743 749 748 745 747 749 753 755 755 757 758 760 761 763 766 770
786 785 784 783 781 780 778 777 775 774 772 770 769 768 767 765 764 763 762 762 764 765 767 769 768 770 766 750 741 741 741 740 739 737 739 739 740 742 743 744 746 748 750 752 753 754 755 756 758 759 760 760 763 768 772 773 772 775 775 776 778 777 775 765 752 752 753 750 747 751 759 753 746 751 750 747 749 750 753 754 754 757 758 760 762 763 765 769
786 785 783 782 780 779 778 776 774 773 771 770 768 767 766 764 763 763 763 764 765 766 768 768 769 770 759 743 741 742 740 739 738 738 738 738 740 741 742 744 746 748 750 752 753 754 755 757 758 760 762 765 767 769 776 781 779 779 778 776 777 776 776 772 758 752 753 753 752 753 756 751 747 754 753 748 750 752 754 754 754 756 757 760 761 762 764 766
785 784 783 781 780 778 776 775 773 771 770 769 767 766 765 764 764 764 764 764 766 768 769 768 770 767 751 740 742 741 739 739 738 737 737 737 739 741 742 744 745 747 750 752 753 755 757 759 761 764 766 768 769 771 778 783 778 777 777 775 778 777 776 776 766 756 753 755 756 757 757 750 746 754 755 749 750 753 753 752 753 755 757 759 761 761 762 764
784 783 782 780 779 777 776 774 772 770 769 767 766 765 764 765 765 765 765 766 766 764 761 763 763 755 744 741 741 739 738 738 737 736 736 736 738 740 743 744 745 747 751 755 757 756 758 761 765 768 770 770 770 770 772 774 771 772 775 776 777 776 775 774 767 758 756 759 759 759 758 752 747 751 755 752 750 752 752 752 754 756 757 759 760 760 761 762
784 782 781 779 778 776 775 773 771 769 767 766 765 764 764 765 765 765 766 765 761 755 752 754 754 748 742 740 738 738 737 736 736 735 735 736 737 740 744 744 746 749 752 756 758 757 758 764 768 769 770 769 767 766 766 768 770 770 773 774 776 776 773 770 766 758 756 761 759 754 756 754 748 748 752 753 751 752 753 754 755 755 756 757 758 759 759 761
783 782 780 778 777 775 774 772 770 768 767 766 764 764 765 766 766 766 765 758 751 749 749 747 747 745 739 736 737 738 739 737 735 735 736 736 736 741 745 746 750 754 756 755 756 757 759 765 768 766 765 762 762 765 766 768 770 770 772 773 775 776 773 768 765 758 756 763 760 754 757 754 747 746 749 752 753 752 751 752 753 753 754 755 755 757 759 760
782 781 779 778 776 774 772 771 769 767 766 765 765 765 765 766 766 766 765 758 747 744 745 742 744 743 734 733 737 739 744 743 736 732 734 735 737 741 745 747 752 756 756 756 758 762 764 767 765 762 761 761 765 768 768 769 770 771 774 775 775 774 771 766 762 759 758 762 758 755 759 753 745 746 748 751 750 745 743 744 746 748 751 753 753 755 758 759
781 779 778 777 775 773 771 770 767 766 765 765 765 766 765 765 765 764 766 762 747 739 740 740 742 739 732 733 736 738 744 743 738 732 731 735 738 740 743 747 752 754 756 757 760 766 768 764 760 758 760 762 766 769 770 771 772 773 774 776 775 773 773 770 764 760 758 760 758 756 760 754 747 745 744 747 745 739 737 739 741 743 746 748 748 751 755 756
780 778 777 775 774 772 770 768 766 765 765 764 764 763 763 764 763 763 764 760 749 738 735 734 735 733 729 730 732 735 738 737 735 730 727 733 737 739 741 745 751 754 755 755 758 763 763 757 755 758 762 762 764 768 770 771 772 773 771 772 773 771 771 769 766 762 757 757 757 757 759 753 749 745 738 742 745 740 739 741 744 745 745 747 749 751 753 753
778 778 776 774 773 770 768 767 765 765 764 762 762 761 762 762 762 763 762 759 751 738 731 731 731 728 725 727 729 730 733 733 729 725 724 728 733 738 741 742 748 754 755 755 759 761 758 754 753 757 761 762 763 765 767 769 771 771 766 765 767 765 765 765 767 768 764 762 758 757 762 757 750 747 742 744 748 745 742 743 745 746 746 748 751 751 752 752
778 777 775 774 772 768 766 766 765 764 762 761 761 760 761 761 761 762 762 763 754 736 729 731 730 725 722 727 729 728 734 730 721 721 723 724 727 732 740 743 744 749 752 754 757 757 754 751 751 754 758 761 763 763 763 766 771 772 761 755 760 762 763 765 768 769 767 765 759 758 766 765 752 747 750 751 750 749 747 745 745 746 746 747 748 748 749 750
777 776 774 773 771 768 767 766 765 764 761 760 760 760 760 759 760 760 762 766 753 733 729 731 729 724 722 726 726 728 734 726 718 721 720 722 725 727 738 745 744 746 747 752 759 755 750 750 752 755 757 761 764 763 762 763 768 767 754 749 756 760 763 765 767 769 766 762 762 759 763 766 757 751 756 756 753 754 751 748 746 744 745 744 744 745 746 747
775 774 773 772 770 769 768 767 766 763 759 758 758 759 758 758 759 760 764 764 746 727 726 728 724 721 722 725 725 725 726 721 721 723 718 720 725 726 737 741 741 743 742 749 759 752 746 749 752 753 757 762 759 755 756 760 761 754 748 749 752 755 759 761 765 768 768 766 764 761 762 766 760 752 756 757 755 757 753 749 746 742 742 742 742 743 743 744
774 773 772 770 768 768 767 766 765 761 757 757 757 757 756 758 758 760 767 760 738 725 725 724 723 724 725 729 729 726 724 721 722 723 719 722 724 725 735 737 737 743 741 744 752 748 743 743 744 748 754 755 749 748 751 754 753 747 747 751 751 754 758 761 765 764 767 772 765 758 759 764 760 752 754 757 755 757 753 748 746 742 740 740 739 742 742 744
772 771 770 769 767 766 765 764 761 758 757 756 756 756 755 757 759 766 770 756 738 731 727 725 727 729 730 733 732 728 728 724 721 723 723 724 724 724 730 733 735 742 744 743 745 745 742 740 741 743 745 743 741 745 747 746 746 744 748 751 753 758 758 760 766 762 769 774 760 754 756 759 762 756 753 754 751 752 751 747 745 742 740 740 739 741 742 744
770 769 768 767 766 765 764 762 757 756 757 756 756 755 755 759 765 772 766 748 740 738 732 732 733 731 732 735 733 728 727 726 721 724 727 727 728 730 732 736 739 745 750 748 746 746 744 743 742 736 733 736 738 743 746 744 744 745 749 751 755 762 761 764 768 766 776 774 755 759 764 760 761 755 750 751 748 749 748 745 743 739 738 738 738 740 743 745
767 765 765 764 764 764 762 759 756 757 756 756 756 755 757 764 770 770 757 744 745 745 740 740 737 734 735 735 732 727 725 725 722 724 727 729 733 735 735 738 742 750 758 755 750 748 745 742 740 733 730 733 737 744 748 749 750 750 753 756 762 770 772 775 776 774 779 769 754 762 766 759 757 752 751 753 749 749 747 741 739 737 737 738 738 741 745 748
764 762 761 760 760 759 758 757 757 757 756 756 757 756 761 768 769 763 756 750 751 749 744 743 740 739 737 732 729 726 724 724 722 723 726 729 734 737 735 736 737 743 753 757 754 752 747 742 739 736 732 728 732 743 746 747 752 754 753 756 763 773 779 782 784 785 779 763 757 764 761 756 754 751 754 754 748 745 744 741 738 736 738 739 741 744 746 750
761 759 757 756 756 755 755 756 757 757 757 756 757 759 765 769 765 761 760 758 752 748 745 745 743 739 734 731 728 726 727 726 723 724 728 732 737 740 739 738 738 737 744 754 756 754 753 747 737 733 731 727 729 733 732 737 748 751 748 748 754 760 767 773 773 772 769 760 760 762 759 757 753 750 751 749 744 742 740 738 736 735 738 739 742 745 747 749
758 756 755 754 754 753 753 755 756 757 757 756 758 763 765 765 765 764 763 759 754 751 748 745 744 739 734 733 730 727 728 728 726 727 731 735 738 739 738 737 738 737 741 751 755 753 756 748 731 727 729 727 726 724 724 733 745 749 747 746 749 745 746 761 768 766 766 764 763 764 762 761 755 749 748 745 744 743 739 738 737 738 740 740 743 747 748 750
756 754 753 753 752 753 752 753 755 756 757 758 760 764 765 762 764 765 761 758 756 756 753 746 742 742 741 738 734 730 727 727 729 730 732 735 734 734 735 732 733 734 734 743 751 751 753 745 730 727 727 722 722 722 721 727 736 746 748 742 743 739 736 753 770 776 774 767 768 772 765 759 755 750 748 746 745 745 743 742 743 743 744 744 745 748 749 752
755 754 753 753 752 753 753 753 755 756 757 759 760 764 768 764 762 762 758 757 757 756 756 752 745 744 748 746 740 735 729 728 729 731 734 736 733 731 731 728 729 729 726 732 741 744 747 742 730 728 725 719 720 722 721 723 727 739 744 735 737 743 742 746 759 771 774 766 768 775 769 763 758 753 752 752 751 750 748 746 747 748 748 748 749 749 750 751
756 754 753 753 753 753 754 754 756 756 757 760 762 767 771 766 761 760 758 756 757 755 757 758 750 745 750 752 745 737 733 733 733 732 734 736 733 728 727 726 726 727 724 725 734 739 743 744 733 728 728 722 720 723 726 727 726 728 730 728 734 744 746 750 756 763 768 771 771 773 776 771 760 756 759 760 759 757 755 753 753 754 754 754 755 754 753 753
756 755 753 754 754 754 755 755 756 757 758 762 765 766 769 766 760 759 757 756 758 757 757 757 752 748 749 750 747 740 735 735 736 736 734 736 734 727 726 726 726 727 725 724 731 736 741 746 740 731 730 726 723 728 731 730 728 727 728 731 735 739 743 748 753 754 758 770 774 773 775 767 757 762 767 763 762 760 758 759 759 759 759 758 760 761 759 758
756 755 755 755 754 755 756 756 756 758 759 765 768 765 766 765 760 756 756 756 756 756 756 755 753 752 750 746 745 742 738 735 736 737 735 733 732 728 726 725 724 727 727 724 730 736 739 747 746 734 730 731 731 735 736 734 731 729 732 736 737 740 744 746 752 756 755 761 771 774 770 761 759 767 767 763 762 759 757 759 760 761 760 758 761 766 766 763
755 754 756 756 755 757 757 757 760 763 764 768 770 768 765 763 759 757 755 754 754 752 752 753 752 752 751 747 744 740 737 735 735 737 735 733 733 731 727 725 724 726 726 726 730 734 737 745 747 739 735 735 735 737 738 738 736 732 730 733 736 739 742 746 755 762 757 756 765 768 760 756 763 767 763 762 762 758 757 759 760 762 762 759 760 766 770 767
754 756 758 756 756 758 758 760 766 769 767 767 768 767 765 761 760 759 755 753 754 751 750 751 750 750 749 746 743 740 737 736 736 737 736 734 735 732 728 726 726 725 726 729 733 732 733 741 745 743 742 741 738 736 736 736 737 735 733 737 741 738 736 740 747 754 758 762 768 766 756 756 767 766 760 762 761 759 760 759 761 765 764 763 764 766 768 767
755 758 758 757 758 758 760 763 767 768 766 766 767 766 764 763 761 759 756 755 754 752 751 750 747 747 746 743 742 740 738 736 735 735 735 735 734 731 729 727 726 727 728 731 734 731 733 743 747 745 744 740 735 732 733 735 736 737 740 744 744 740 737 739 743 747 752 758 762 761 757 760 767 765 761 762 762 762 762 761 762 765 765 767 768 766 766 766
757 759 759 759 759 759 763 765 765 766 767 768 768 765 764 764 762 760 759 757 754 753 753 750 747 746 745 743 742 741 740 738 737 736 736 737 734 730 730 727 726 730 732 732 732 728 734 747 751 751 753 751 745 741 737 736 738 743 749 750 747 745 743 743 750 749 749 758 761 753 753 762 768 765 763 764 765 765 765 764 763 762 762 766 769 769 768 769
757 759 760 760 759 760 764 766 766 768 770 771 770 767 765 764 761 759 760 758 755 755 755 752 749 748 748 746 743 741 740 739 739 738 737 739 736 730 730 729 727 730 732 732 729 728 738 750 751 751 758 759 757 755 750 747 748 750 751 751 751 752 744 739 745 744 746 765 768 751 750 764 768 766 766 767 767 768 768 768 767 766 766 768 771 773 774 775
756 759 761 761 760 762 766 769 768 768 770 772 770 769 769 766 761 759 759 758 756 755 756 753 750 749 749 747 744 742 742 741 740 741 741 743 740 735 732 730 728 730 730 730 731 734 745 757 757 754 756 757 757 759 760 757 755 755 754 753 756 758 750 742 741 741 747 762 765 759 763 770 768 768 769 769 769 770 772 773 774 775 775 776 778 779 780 781
755 758 762 761 761 763 766 768 769 768 770 771 769 769 769 768 764 760 757 757 757 757 756 755 753 752 754 752 746 745 747 745 743 746 748 746 745 743 738 732 730 730 729 731 735 738 746 758 763 762 763 765 765 766 764 760 762 768 769 765 765 764 754 740 738 747 752 752 755 764 770 769 768 772 772 773 775 778 780 781 781 782 782 783 784 784 784 785
757 760 763 762 762 764 766 767 768 769 771 771 770 770 769 768 766 762 759 758 756 756 756 754 755 757 759 760 754 749 751 750 749 753 754 750 750 750 743 734 731 732 730 733 738 740 747 758 765 766 767 769 769 769 766 764 769 779 781 776 774 772 762 749 752 764 760 747 749 762 769 771 777 782 782 783 784 785 786 787 786 787 788 789 789 789 789 788
759 761 764 763 762 766 769 770 770 769 769 771 770 769 768 768 766 765 764 761 757 758 759 757 757 758 760 761 756 754 756 754 753 756 758 756 755 754 747 738 735 735 731 734 741 743 749 760 766 765 766 768 769 769 767 766 769 775 782 783 778 775 772 766 769 775 767 755 757 765 773 782 789 789 790 790 788 788 790 790 791 792 794 795 795 794 794 794
758 759 762 763 764 769 771 771 770 768 768 771 770 768 768 767 765 765 765 762 759 760 760 759 759 759 761 758 754 756 758 756 754 758 761 761 756 752 750 744 741 739 735 738 744 743 746 759 766 764 764 767 770 769 765 765 766 768 778 786 781 774 773 771 772 774 770 767 770 771 775 786 794 793 793 793 792 791 793 795 796 797 798 798 799 799 800 799
759 759 760 760 765 772 772 771 774 771 769 772 771 767 768 767 767 768 765 761 760 759 759 759 760 761 761 758 756 758 759 757 756 757 759 761 757 754 754 751 748 746 742 743 747 744 747 760 767 763 762 769 774 771 765 764 763 762 774 788 788 781 778 777 780 782 777 772 773 772 773 783 795 796 796 798 798 797 800 802 802 801 801 801 802 803 803 802
759 760 760 760 766 776 775 773 777 774 770 774 774 770 769 767 769 770 764 759 759 759 758 759 759 761 762 758 757 759 758 756 755 753 754 757 758 758 758 754 752 750 746 746 751 752 752 758 763 760 762 773 779 773 766 764 761 765 780 794 794 790 785 783 787 791 787 778 774 775 779 788 797 797 799 803 804 804 806 808 807 806 806 805 805 806 806 805
Wind_Speed
12 12 12 13 13 13 14 14 14 14 14 14 15 15 15 15 15 15 15 15 16 16 16 16 16 16 16 16 16 17 19 21 21 13 9 11 10 6 8 4 8 18 16 15 17 15 10 7 7 7 7 4 1 2 2 1 2 3 3 3 2 4 4 5 5 5 3 5 6 7 7 5 7 7 1 4 8 5 5 6 5 7 7 9 16 24 26 26
12 12 13 13 13 13 14 14 14 15 14 15 15 15 15 15 15 15 15 15 16 16 16 16 16 16 16 16 16 17 20 21 18 15 10 6 8 3 8 6 11 21 19 16 17 15 10 4 6 7 5 3 1 1 2 1 2 2 3 2 5 5 4 5 5 3 3 6 8 8 4 5 7 6 3 3 2 5 3 5 6 10 10 12 17 22 23 25
12 13 13 13 13 13 14 14 15 15 15 15 15 15 15 15 15 15 16 15 16 16 16 16 16 16 16 16 14 16 19 16 10 8 3 7 11 4 9 9 14 23 18 14 14 13 9 10 12 8 4 2 1 2 2 2 2 2 4 2 6 5 4 4 4 5 6 6 8 8 4 6 8 5 1 3 3 4 3 4 8 11 12 13 12 16 21 23
12 13 13 13 13 13 14 14 15 15 15 15 15 15 15 15 15 15 15 15 16 16 16 16 16 16 16 15 13 14 14 7 3 2 3 7 15 6 12 12 15 21 13 9 10 9 9 13 12 5 4 2 1 2 3 3 2 2 3 5 5 3 2 5 5 6 7 5 4 7 7 8 8 3 2 6 5 3 7 8 9 14 16 15 12 12 17 19
12 13 12 13 13 13 13 14 14 15 15 15 15 15 15 15 15 15 15 15 16 15 16 16 16 16 15 14 11 12 9 3 2 3 6 10 16 6 14 15 16 19 11 8 10 11 11 11 7 4 4 2 1 2 2 4 3 2 5 7 4 1 4 5 4 6 6 4 5 6 7 6 6 4 2 7 6 5 5 7 8 14 19 18 15 12 13 16
12 12 13 13 13 13 13 13 14 14 14 15 15 15 15 15 14 15 14 15 15 15 16 15 16 16 14 12 8 7 3 1 6 6 10 13 15 4 17 19 16 17 12 11 13 12 9 7 5 3 3 2 3 3 3 3 2 2 6 5 4 4 4 5 5 7 5 4 7 5 4 4 4 7 4 9 9 5 2 5 9 13 16 16 14 13 12 14
12 12 12 13 13 13 13 13 14 14 14 14 14 15 14 14 14 14 13 14 14 13 15 15 16 15 14 12 5 3 2 5 11 9 13 13 9 2 20 20 15 16 13 12 12 9 6 7 5 4 4 3 3 3 3 1 1 4 6 4 3 5 6 7 7 8 6 4 9 4 4 5 3 6 2 6 7 2 4 8 13 12 12 13 12 11 12 13
12 13 13 13 13 14 14 14 14 14 14 14 15 15 14 15 14 14 13 13 13 13 14 14 15 13 13 11 3 3 1 7 11 11 12 9 3 8 22 20 15 15 14 13 12 8 6 7 6 4 4 2 4 3 3 1 1 5 6 4 3 4 6 7 6 9 8 7 7 4 6 7 5 3 1 5 5 4 8 9 13 13 12 11 10 10 10 11
13 13 13 14 14 14 14 14 15 15 15 15 15 15 15 15 15 15 13 13 13 13 13 13 14 10 10 8 3 3 4 4 8 9 7 3 3 14 22 17 17 15 12 11 11 11 6 5 6 5 4 3 4 3 2 2 2 6 6 4 4 5 6 6 6 9 8 5 1 4 10 7 3 3 2 5 1 7 9 10 12 13 12 9 8 10 9 8
14 14 14 15 15 15 15 15 15 15 16 16 16 16 16 16 15 15 14 13 13 12 12 11 11 8 8 5 4 2 5 3 5 8 9 6 7 16 20 14 17 16 11 9 10 11 6 6 6 4 5 3 3 3 3 5 4 4 4 5 6 6 7 4 6 9 6 5 3 5 10 5 1 2 3 3 5 10 11 12 13 12 11 9 8 10 8 7
14 14 15 15 15 15 15 15 16 16 16 16 16 17 17 16 16 15 14 13 12 12 10 9 9 6 5 4 3 3 5 2 2 7 10 8 8 10 12 8 14 15 10 7 9 11 6 7 8 4 1 2 2 2 2 4 3 3 3 5 6 5 6 4 6 8 3 5 5 7 7 4 2 2 5 4 8 11 13 14 14 12 10 9 8 8 6 6
15 15 15 15 15 15 15 16 16 16 16 16 17 18 18 17 17 17 15 14 13 11 8 7 6 2 3 2 5 9 6 3 3 4 3 2 4 3 5 6 10 13 11 6 7 12 9 7 9 4 1 3 1 1 2 3 1 3 2 3 7 6 6 5 6 5 2 4 3 7 4 7 1 5 5 6 10 10 12 13 14 13 10 8 7 5 6 7
15 15 15 15 16 16 16 16 16 16 16 17 18 19 19 19 19 19 17 15 12 9 6 5 3 1 2 1 8 12 11 10 12 13 14 15 15 10 7 7 8 11 12 7 3 8 11 9 6 4 1 4 1 2 1 0 1 3 1 1 5 7 6 6 3 2 2 4 3 6 3 7 6 8 5 9 12 12 12 13 13 12 9 7 7 5 7 11
15 15 15 16 17 16 16 16 16 17 17 18 19 19 20 21 21 20 17 14 11 7 4 2 2 3 2 5 13 15 13 14 17 20 20 18 13 7 6 8 9 11 12 10 3 3 11 11 1 1 1 2 1 3 4 4 3 2 2 0 3 2 5 8 4 1 1 3 3 6 2 6 8 8 4 10 13 14 13 13 13 11 8 6 7 6 7 10
15 15 15 16 17 16 17 16 17 17 17 19 19 20 21 21 20 17 14 10 5 2 3 4 5 3 1 8 13 9 6 9 14 17 18 18 13 7 6 9 10 11 11 11 6 3 7 10 2 2 3 2 2 2 4 4 3 2 1 3 3 1 4 10 5 2 2 4 1 5 2 6 7 5 6 9 11 12 12 13 13 11 8 7 6 7 7 8
15 15 15 16 17 17 17 17 17 17 18 19 19 21 21 19 15 11 8 3 2 4 6 4 4 3 1 6 6 2 4 7 8 9 8 15 16 9 6 8 7 8 8 6 6 3 4 6 1 2 1 2 1 1 2 3 4 3 1 2 3 1 2 6 5 1 1 3 3 1 1 5 5 3 5 8 10 10 11 12 13 11 8 7 6 5 7 8
16 16 16 16 17 17 18 18 18 17 18 19 20 20 16 11 8 4 2 5 5 6 7 3 3 3 3 6 5 4 5 4 3 6 3 10 16 11 6 5 4 5 6 3 3 3 2 2 1 0 1 1 2 3 1 2 4 3 2 0 3 2 1 3 4 4 4 3 4 4 1 6 6 2 4 9 11 9 10 12 12 10 7 6 6 6 7 8
16 16 16 17 17 18 18 18 18 18 18 19 20 17 8 6 7 5 9 10 7 6 4 1 1 1 3 5 4 3 4 5 7 10 8 7 12 13 6 4 5 6 5 2 2 2 1 1 1 1 1 1 2 4 3 4 3 2 1 0 2 3 2 2 4 4 6 6 4 4 2 8 7 1 6 10 11 10 11 12 10 9 7 7 7 7 7 8
16 16 17 17 17 18 18 18 18 18 19 20 16 8 3 6 7 6 8 8 5 3 1 2 3 2 3 4 4 5 9 10 10 10 6 5 9 11 4 3 5 6 4 2 0 2 2 1 3 1 2 1 4 5 6 7 5 5 4 4 3 4 3 4 4 5 3 5 5 4 4 7 8 3 6 8 10 11 10 8 8 7 6 7 7 7 8 8
17 17 17 17 18 18 18 18 18 18 19 18 12 4 4 4 4 2 1 2 4 5 5 5 7 5 7 6 3 8 13 9 4 3 2 5 10 9 3 1 4 4 2 3 2 2 4 3 2 4 4 5 7 7 7 6 4 3 2 2 4 5 5 2 4 6 1 1 6 6 5 7 9 7 8 9 10 10 9 8 8 8 7 8 9 9 9 8
17 17 17 18 18 18 18 18 17 19 16 11 8 4 2 1 2 2 3 4 9 10 11 12 12 11 13 10 3 6 8 5 2 3 5 5 10 9 1 1 4 1 2 4 3 1 4 4 5 5 8 7 6 6 6 5 2 1 2 4 4 5 6 3 4 7 3 3 5 4 3 7 10 8 7 9 10 11 12 11 11 11 8 8 10 10 9 7
17 17 18 18 19 19 18 18 18 18 11 4 6 3 2 1 1 2 2 5 9 11 13 14 10 12 17 15 11 3 2 3 7 6 6 6 7 6 3 3 5 4 2 3 3 1 0 4 5 7 8 5 4 5 6 4 2 2 1 3 5 4 4 5 4 4 2 3 4 3 3 8 11 8 6 10 13 13 15 16 15 14 10 9 12 11 10 9
17 17 18 18 19 19 18 19 18 10 3 4 6 1 2 1 3 3 2 3 8 6 9 10 7 10 13 9 9 8 4 5 6 5 8 11 5 5 5 4 6 4 2 3 4 3 2 5 6 7 7 6 3 4 7 4 1 2 3 3 5 2 1 4 4 4 1 2 5 5 4 7 8 6 4 10 13 13 14 15 13 13 13 12 13 11 11 12
18 18 18 19 19 20 19 17 9 1 4 11 9 2 1 5 6 1 2 2 5 3 6 9 7 8 8 3 11 13 4 6 5 4 10 13 4 3 6 5 5 4 3 6 7 5 6 6 3 5 5 7 4 3 6 4 2 3 5 6 4 2 4 6 4 5 5 4 3 3 4 5 5 5 6 6 7 9 8 9 7 8 10 9 8 9 11 13
18 17 18 19 19 20 18 9 0 2 13 12 3 1 3 10 9 2 3 2 4 6 4 5 4 5 5 4 12 13 2 3 7 5 10 14 8 4 3 3 4 5 6 6 6 5 7 5 5 6 3 5 5 4 4 6 3 4 5 9 8 7 8 8 3 4 5 5 2 1 3 5 5 4 6 4 4 7 4 8 9 9 9 9 10 10 11 12
18 17 18 18 18 21 14 2 3 11 14 4 4 1 8 13 8 4 3 4 3 5 3 1 1 4 5 4 7 6 3 3 9 8 9 14 12 6 3 2 1 4 6 5 4 3 3 3 6 6 4 5 4 4 5 7 4 4 6 10 11 9 8 8 2 3 1 3 3 3 3 4 6 4 6 6 4 6 3 7 10 9 9 11 11 11 11 12
18 17 18 17 17 18 9 3 10 12 5 2 1 7 11 13 4 7 2 5 3 4 0 1 0 3 4 5 7 6 2 3 2 7 10 12 10 4 4 4 1 2 4 4 1 3 3 4 5 5 5 5 4 4 6 8 6 3 6 8 9 8 8 6 3 3 3 3 4 3 4 3 5 4 6 4 1 3 4 7 9 10 11 12 13 12 13 14
18 17 17 16 15 14 8 9 11 6 2 3 7 10 13 10 1 6 3 4 2 2 2 1 1 3 1 4 7 4 3 1 2 2 7 11 8 3 4 7 6 5 4 5 4 4 3 5 6 6 5 4 5 5 7 9 5 6 6 7 7 7 7 5 5 4 3 2 5 5 2 2 5 5 5 2 2 4 7 9 10 12 13 13 13 14 15 14
18 17 16 16 16 13 9 8 8 5 5 7 9 11 13 7 3 4 4 1 3 2 3 1 0 0 3 3 4 4 3 1 1 1 3 7 5 3 4 6 6 5 4 5 6 4 2 5 8 8 5 5 7 6 9 11 7 4 5 5 3 3 3 3 4 3 1 1 5 6 2 2 4 5 4 3 1 4 6 7 8 10 12 12 13 13 13 12
18 18 17 16 16 12 6 9 11 6 5 8 10 13 11 3 4 4 2 3 3 3 2 2 1 2 3 3 3 5 3 4 2 2 4 2 1 3 2 2 6 4 1 1 3 4 2 1 4 5 5 7 6 5 9 13 9 2 5 5 5 5 3 3 2 3 3 2 7 6 4 3 3 5 3 1 2 4 4 5 7 9 10 10 11 11 10 10
19 19 17 15 13 9 5 6 5 1 4 10 13 11 5 2 4 4 2 4 2 3 4 4 2 3 4 1 4 3 3 4 2 4 4 2 2 2 2 2 3 3 2 3 3 3 3 1 1 3 6 5 4 3 4 7 5 2 3 4 3 2 3 4 4 3 2 5 7 4 3 5 3 5 4 4 5 5 6 7 10 13 12 11 11 9 8 8
21 20 18 16 13 11 9 5 2 3 8 11 10 6 3 2 1 2 3 4 2 2 4 3 3 6 8 4 3 4 3 2 1 4 5 4 4 4 3 3 4 2 2 4 3 4 3 4 4 4 4 5 5 2 3 2 2 4 3 4 3 1 2 2 3 0 2 7 5 1 3 4 4 5 5 7 8 7 7 8 9 11 12 9 8 8 7 6
23 21 18 15 13 16 13 6 5 9 10 7 5 4 6 3 2 4 3 3 1 2 3 3 6 8 8 4 2 3 2 2 3 3 2 3 5 5 3 2 6 5 1 3 2 2 3 5 3 2 3 4 7 4 2 1 3 5 5 5 4 2 2 1 3 1 3 6 3 1 2 2 4 3 4 7 9 8 8 8 6 5 7 6 6 8 8 7
23 18 14 12 12 15 12 7 6 6 6 3 4 5 5 2 3 3 2 2 3 4 3 3 7 7 4 2 3 2 1 1 2 4 2 3 4 4 3 2 4 5 3 2 2 3 1 4 3 4 2 2 6 7 5 4 4 4 4 5 5 4 4 3 4 3 4 4 3 2 1 3 2 3 4 5 8 7 4 5 4 3 5 6 7 8 9 9
19 13 11 10 9 10 9 8 7 3 1 3 6 5 3 3 3 0 1 3 2 3 6 5 4 4 4 3 4 3 1 2 1 5 3 3 4 5 4 4 5 4 4 3 2 2 3 4 7 4 2 4 4 5 4 6 3 2 2 4 2 5 5 2 3 4 2 1 2 2 1 3 3 4 4 3 4 5 4 2 5 6 7 8 8 8 8 7
16 9 7 6 4 3 3 8 8 5 2 5 6 2 3 3 2 2 1 2 2 3 7 6 3 3 4 4 3 5 3 1 2 2 2 2 3 4 3 4 5 5 5 5 3 1 2 4 7 4 2 4 5 4 4 5 3 1 2 4 3 4 7 4 2 1 3 2 2 1 2 4 2 2 4 4 5 5 5 5 5 5 7 8 7 7 7 6
15 8 2 2 1 2 5 9 10 6 3 6 4 2 3 3 2 3 1 2 2 2 3 3 2 1 2 3 3 5 5 2 2 1 1 1 2 3 3 2 4 7 7 4 2 3 3 3 6 2 4 6 2 3 1 1 5 4 3 5 2 3 4 4 2 3 4 2 3 2 2 4 1 1 3 5 7 6 5 5 5 4 2 4 4 6 7 7
12 6 2 2 2 7 8 10 9 5 4 5 2 2 2 2 2 2 1 2 2 1 3 1 2 1 2 2 4 5 4 2 2 1 2 1 2 3 3 2 3 6 8 5 2 2 3 2 7 3 5 6 4 3 2 4 1 4 4 4 3 2 1 1 2 1 1 2 3 3 3 3 2 2 2 5 6 6 6 7 8 8 5 4 4 3 5 7
6 2 2 3 4 9 9 8 5 3 5 3 0 1 2 2 3 3 2 2 1 1 1 2 2 2 2 1 3 4 3 1 1 0 2 2 2 2 1 2 2 3 5 7 5 2 2 1 5 5 3 3 5 3 1 3 3 2 3 2 2 3 4 2 2 2 3 3 1 2 3 3 4 3 2 4 5 4 5 6 8 8 9 9 8 6 4 5
2 1 2 3 5 11 8 4 2 4 4 2 2 2 2 2 3 4 3 2 1 1 1 3 1 2 3 3 3 3 2 1 2 1 2 2 2 2 2 2 2 1 1 5 4 1 2 2 3 5 4 3 2 1 2 4 1 2 2 1 0 2 2 2 1 2 3 4 3 1 1 4 4 1 2 4 4 2 3 4 5 5 8 11 11 8 6 4
1 3 2 3 7 12 6 2 2 3 2 1 1 2 2 2 2 4 5 3 3 3 3 3 2 2 3 3 3 3 1 1 1 1 1 1 1 1 2 0 1 1 3 5 3 1 2 3 3 3 4 2 3 4 2 3 4 4 4 4 3 3 4 3 0 1 2 3 3 4 2 5 4 0 2 3 2 2 3 5 5 5 7 9 11 9 5 4
3 3 3 1 10 11 3 3 1 1 2 1 2 2 2 2 2 3 4 2 2 2 1 2 3 3 4 3 3 2 1 1 1 1 1 1 1 1 2 3 2 1 3 3 1 2 3 4 2 2 2 3 7 7 2 1 2 2 2 3 3 3 4 5 3 3 2 2 2 3 1 5 3 1 1 2 3 3 4 6 7 6 6 7 9 10 7 6
3 2 2 4 11 5 5 2 2 3 1 2 2 2 2 1 2 2 3 2 1 1 1 1 3 3 3 2 2 2 1 1 1 1 1 2 1 2 4 4 1 3 3 1 2 1 2 4 2 2 4 4 6 6 3 3 4 3 3 2 3 2 3 5 5 4 3 2 2 2 0 4 3 2 3 2 3 5 5 7 9 7 5 7 6 6 8 8
3 1 2 6 9 2 3 1 2 3 2 3 3 2 3 1 1 2 2 2 2 1 1 2 2 2 2 1 1 2 1 0 1 2 1 0 1 3 5 2 2 3 2 2 2 1 0 1 2 2 3 4 5 5 5 5 4 2 2 4 2 2 5 3 2 3 2 3 4 4 3 4 3 1 4 4 5 7 6 6 6 5 5 6 5 6 7 7
2 1 1 1 3 2 1 3 3 1 2 3 3 4 4 2 2 2 2 3 2 0 1 3 3 2 2 2 2 2 2 1 1 2 2 3 3 3 5 4 3 3 1 0 1 1 2 1 2 4 3 2 1 2 3 2 3 1 2 5 5 3 4 3 3 3 2 2 3 4 4 3 1 3 5 5 6 7 7 6 6 6 6 7 7 7 7 7
3 1 1 3 3 3 1 1 3 3 1 1 1 3 2 2 4 3 3 2 2 1 1 3 3 2 2 3 2 2 3 1 1 3 3 4 3 3 5 5 4 5 5 6 7 4 4 2 2 5 5 5 5 5 5 2 1 2 4 6 6 5 2 3 4 2 4 3 2 2 4 2 4 5 5 5 6 7 8 9 9 8 9 9 8 8 8 7
3 1 2 1 2 3 2 2 3 3 0 2 1 2 2 3 4 2 1 0 1 2 1 1 3 3 2 4 2 1 3 4 4 4 3 3 2 4 8 4 5 5 4 5 5 3 5 3 2 5 4 0 2 4 4 1 4 3 4 7 8 8 5 4 4 2 5 5 1 4 4 6 5 4 5 5 6 8 9 9 9 8 9 8 8 9 10 10
2 1 2 2 1 1 1 2 2 3 2 1 1 1 2 3 3 2 2 3 2 3 1 2 4 4 2 3 1 1 4 5 5 4 3 4 2 4 7 3 5 7 4 4 3 3 5 2 1 3 4 4 5 4 3 4 5 4 6 8 9 9 7 4 2 1 3 4 4 4 6 5 3 6 7 7 7 8 8 8 8 9 9 9 9 10 11 12
2 2 0 1 2 3 1 0 2 4 2 1 1 1 1 3 4 2 2 2 4 4 2 1 5 6 4 2 2 2 2 2 2 3 2 3 2 2 4 3 3 5 4 5 3 3 4 2 1 3 3 5 7 6 5 6 4 4 7 9 9 9 8 6 3 2 3 3 4 8 9 6 5 5 6 6 6 7 8 7 8 10 9 9 10 10 10 10
2 3 0 2 3 1 1 2 3 4 2 2 2 2 1 1 4 4 2 1 1 4 2 2 6 7 5 3 5 4 1 3 3 2 1 2 3 2 2 1 2 5 4 4 2 2 3 2 1 3 3 4 6 6 6 6 5 6 8 10 10 8 8 7 4 3 4 4 7 9 7 4 4 5 7 6 5 8 10 9 9 9 8 8 10 10 9 9
2 2 2 4 3 3 2 2 3 3 2 3 1 2 2 1 3 3 3 2 4 2 1 2 5 6 3 4 6 4 2 5 6 5 4 3 2 2 2 2 2 5 4 2 2 3 3 2 1 4 3 2 5 5 6 5 5 6 8 12 11 7 4 4 4 4 3 3 7 7 3 2 2 4 7 8 8 11 12 10 9 8 7 8 9 9 9 9
2 2 2 5 3 3 2 2 3 3 1 1 2 2 2 3 4 2 2 3 2 3 4 2 2 3 4 4 4 2 4 6 7 6 5 5 4 3 5 7 5 3 1 2 2 2 3 3 1 3 2 1 4 4 4 3 3 2 5 7 8 6 2 2 3 6 5 0 4 3 1 2 4 5 7 9 10 12 11 9 9 8 8 9 9 9 9 9
Wind_Direction
347 349 348 348 347 347 346 346 347 345 347 345 345 345 344 345 343 343 341 339 338 336 335 333 330 328 325 324 323 325 325 318 313 303 272 287 312 278 236 251 181 167 150 140 147 140 125 121 127 130 128 111 52 146 159 190 91 69 92 117 215 213 198 186 186 195 223 299 308 329 355 12 336 331 342 60 30 21 58 48 53 57 64 97 114 127 137 141
347 348 347 348 347 347 346 345 345 345 345 344 344 344 343 344 341 342 340 339 339 336 337 334 331 329 324 323 323 327 323 315 306 283 267 323 354 298 209 195 178 171 155 144 153 145 133 147 138 122 108 95 328 113 159 220 118 123 113 150 231 205 208 193 184 236 282 290 303 318 351 1 317 307 331 89 26 329 51 82 95 93 97 105 116 129 138 142
347 347 346 347 346 347 346 344 344 343 343 342 342 342 342 342 340 340 339 339 338 337 337 334 333 329 325 325 327 329 319 315 309 274 280 19 6 329 189 174 178 175 163 154 162 155 147 157 146 126 91 101 198 130 162 203 166 174 117 194 241 199 218 232 214 249 258 270 303 312 334 342 298 272 347 120 127 284 242 153 132 130 135 130 128 135 142 146
346 346 345 346 345 346 345 344 344 342 342 341 340 340 340 340 339 338 337 337 336 335 335 334 335 331 329 329 331 330 321 326 305 277 6 353 354 347 177 163 172 176 166 157 168 161 136 139 138 113 95 107 296 123 164 218 197 179 150 207 228 157 248 268 251 253 263 275 291 305 328 323 297 289 103 126 131 251 238 216 181 157 151 145 143 145 148 150
347 344 345 345 344 345 345 345 344 342 341 339 338 338 337 337 337 336 336 335 334 334 333 333 334 333 332 333 339 333 334 24 286 311 357 338 345 339 169 154 165 173 163 148 153 144 124 126 120 72 88 109 131 113 207 225 159 158 239 238 241 286 293 277 266 268 268 294 303 309 319 300 307 327 150 152 177 232 227 217 195 163 155 153 150 152 152 154
347 345 345 344 344 343 342 343 342 341 340 338 337 335 335 335 334 334 333 332 333 332 332 334 334 334 335 339 346 342 0 341 290 316 332 328 338 328 161 153 158 164 161 144 139 136 119 107 103 102 100 98 152 161 232 232 152 202 264 266 259 248 262 271 273 280 281 321 302 292 299 296 338 314 233 180 209 238 195 147 157 163 157 151 145 149 155 157
346 346 344 343 343 341 341 341 340 339 338 337 335 333 332 331 331 330 330 331 331 332 333 333 335 336 339 345 347 8 73 257 286 316 320 321 339 154 160 159 159 162 161 142 135 136 116 106 120 135 110 100 161 189 222 241 138 217 261 292 271 228 228 254 262 281 290 272 268 276 321 309 298 295 255 197 234 232 110 122 139 152 145 143 144 149 156 158
344 344 343 342 342 340 340 339 338 338 336 335 333 331 330 329 329 329 329 330 329 332 333 334 338 340 342 349 358 352 278 256 297 325 321 324 8 155 162 164 167 169 165 152 145 142 121 125 156 144 115 184 172 175 204 102 11 226 246 283 276 247 239 260 273 281 283 260 261 291 294 277 230 233 183 239 270 94 115 121 134 140 137 147 151 147 152 161
343 341 341 342 341 340 339 337 337 337 335 334 332 331 329 328 328 328 328 327 328 329 331 335 335 341 344 349 34 341 267 266 335 357 357 11 120 162 167 168 174 175 165 162 154 150 150 156 183 167 150 192 169 173 187 160 254 226 226 254 256 270 272 280 284 276 282 274 256 300 285 286 245 215 240 264 239 113 122 125 139 140 143 153 155 158 154 153
340 340 341 342 341 339 338 337 336 336 336 333 331 330 327 328 327 327 327 324 325 323 326 334 331 341 348 349 59 340 274 313 21 40 50 71 117 161 173 174 179 179 163 166 166 162 164 172 180 157 148 148 157 182 146 165 218 211 210 252 246 267 283 279 278 276 295 289 228 249 273 293 340 214 260 267 120 126 128 136 152 146 152 160 158 166 155 133
340 341 341 341 340 337 336 336 335 335 334 331 329 328 326 327 327 327 325 320 319 316 319 327 328 348 5 22 99 241 272 321 47 49 60 82 90 151 180 192 191 186 168 166 190 186 174 173 163 117 167 174 149 183 186 195 220 236 243 287 277 290 294 261 268 274 291 284 223 194 259 308 56 223 242 189 130 136 138 150 162 154 160 159 155 161 143 119
339 339 339 338 337 335 335 334 334 333 331 328 326 326 327 328 329 326 317 312 311 307 308 319 325 11 32 31 208 241 267 263 264 329 338 288 320 269 234 237 211 205 192 174 208 207 198 186 162 137 222 160 116 334 213 216 257 277 267 294 296 340 327 269 265 268 188 257 211 146 292 318 250 237 232 150 135 141 141 156 165 162 167 156 156 153 116 104
336 337 337 336 335 336 335 333 332 331 329 326 326 327 328 330 330 322 310 304 301 294 291 304 302 151 70 238 239 261 275 264 270 282 276 274 284 286 266 243 228 225 218 201 205 217 212 207 171 173 182 114 194 284 198 265 351 288 279 183 312 358 327 279 290 334 179 234 187 144 286 290 258 263 226 144 140 144 146 162 167 167 170 155 156 142 126 133
334 334 335 334 335 335 333 332 331 330 328 326 327 328 330 331 325 314 304 295 286 275 270 270 214 151 128 250 269 286 285 269 266 264 259 262 267 274 255 230 225 226 225 218 222 300 220 211 99 111 216 111 201 308 345 355 10 315 295 282 358 13 285 297 307 22 241 264 164 147 234 264 271 288 209 157 150 153 157 168 170 173 169 152 159 149 143 141
332 332 333 333 333 333 332 331 331 328 328 328 328 330 330 328 319 309 299 286 273 234 176 167 175 145 35 279 283 294 277 259 263 261 253 248 242 239 234 218 219 220 224 224 226 322 214 197 70 68 248 308 72 9 339 347 3 15 303 302 354 154 266 308 303 170 218 294 63 130 213 269 275 278 194 165 159 161 163 173 175 177 166 148 161 155 146 132
330 331 331 331 331 332 331 330 331 328 328 329 329 332 330 325 320 311 301 266 172 160 153 152 181 162 349 285 296 315 257 257 274 286 253 232 229 223 209 197 203 208 209 217 212 239 192 171 148 148 212 307 123 96 4 355 340 0 54 265 305 258 279 317 315 347 237 290 354 63 213 277 295 277 202 168 168 171 168 179 178 176 167 152 157 152 149 138
329 330 330 331 330 330 330 330 330 328 328 330 331 333 332 339 349 353 50 107 136 154 144 129 169 177 266 273 289 296 281 279 298 324 287 229 225 208 168 151 145 153 161 144 164 198 191 165 215 162 48 12 146 113 57 309 296 325 16 257 262 251 230 301 302 331 17 35 351 351 239 260 286 285 207 181 178 182 180 188 183 173 164 151 154 160 162 155
328 329 328 329 329 329 330 330 328 328 329 330 333 335 347 48 44 78 106 108 113 120 125 65 133 176 271 267 289 297 304 317 312 310 294 245 216 198 165 110 117 109 107 83 111 138 156 262 76 31 344 52 121 115 153 223 208 195 247 119 288 289 224 225 264 305 4 18 349 346 301 271 281 190 194 193 182 190 197 194 184 170 157 153 162 171 171 169
326 327 327 328 329 329 329 327 327 329 329 332 338 349 73 84 68 93 109 110 107 109 187 227 171 183 263 252 271 304 314 313 301 290 265 210 188 183 161 94 109 100 93 61 41 162 144 62 66 160 232 159 180 166 177 199 163 151 172 170 215 276 255 207 238 276 343 359 316 270 238 264 279 229 199 203 192 199 206 193 180 170 158 159 169 179 175 181
325 326 327 327 327 327 327 325 326 329 330 335 346 34 99 56 42 41 41 177 200 213 228 213 194 233 282 275 294 324 322 319 294 282 242 178 156 148 128 83 80 72 121 145 195 203 128 150 214 197 179 173 202 197 177 177 140 130 178 209 221 249 265 208 236 265 220 351 286 253 229 256 268 246 206 199 199 206 206 194 188 180 171 172 179 185 180 185
324 326 327 327 326 326 325 323 326 329 329 338 3 48 125 60 51 325 290 260 239 224 236 235 210 228 255 257 294 352 345 334 285 285 268 212 144 136 176 133 108 114 227 156 163 70 110 184 220 189 178 181 188 180 160 151 128 147 228 272 270 243 261 250 236 259 192 164 267 271 268 271 264 250 212 187 192 209 206 195 194 188 177 178 184 183 177 177
324 325 326 326 325 324 322 324 327 326 323 359 28 44 193 172 129 256 245 291 266 217 223 238 225 243 250 251 257 255 48 303 291 288 230 191 150 165 200 125 143 204 237 106 122 61 83 221 212 190 183 151 107 120 130 139 160 167 182 265 272 254 286 291 266 279 127 155 264 292 290 273 269 259 212 185 190 205 206 197 194 187 176 180 187 183 174 173
323 325 326 325 324 322 321 326 326 325 346 2 353 332 198 324 310 275 184 289 284 219 212 226 217 241 248 249 226 184 163 217 255 284 182 162 163 176 159 146 164 168 135 147 166 169 219 239 213 189 162 131 107 115 118 111 145 176 180 227 263 265 327 285 292 324 319 225 258 278 292 276 285 298 239 202 200 210 209 199 194 189 185 185 183 177 177 183
323 325 325 323 323 320 324 329 328 20 348 323 311 240 184 340 334 293 169 259 289 275 225 209 200 226 242 236 176 171 196 196 193 253 175 155 144 150 163 162 143 154 195 181 169 184 231 239 177 124 133 159 185 158 131 150 265 249 212 213 240 242 214 229 278 333 323 314 251 260 324 298 309 322 284 245 225 234 214 180 176 190 191 182 170 172 186 191
324 324 322 323 323 322 329 335 250 351 328 316 278 139 353 338 337 177 163 347 293 287 271 208 205 225 216 168 167 170 172 205 206 214 162 160 159 134 175 166 127 190 209 167 154 209 252 236 137 107 119 161 178 211 182 177 224 286 234 211 211 218 229 239 278 14 359 338 287 73 16 299 310 312 291 305 248 240 209 168 177 182 177 169 171 181 191 193
323 320 321 323 323 329 339 334 302 328 324 306 150 323 324 328 330 180 156 27 307 283 310 194 190 210 199 153 160 154 86 258 223 190 162 174 172 138 152 172 120 203 190 152 155 220 255 192 154 154 158 152 166 238 226 168 163 282 239 202 203 212 230 245 232 97 99 268 283 53 100 261 310 326 296 309 267 243 217 183 183 174 171 174 181 185 188 189
319 318 321 321 325 339 347 290 314 323 312 148 251 303 316 326 321 176 146 26 315 267 212 280 177 172 199 174 163 148 155 274 216 179 184 179 171 132 149 174 148 198 161 125 192 240 182 148 147 148 146 153 172 241 224 157 140 251 229 177 180 202 221 230 181 159 228 261 313 15 116 218 295 294 281 293 228 246 225 194 184 178 180 181 184 185 188 188
317 318 319 317 323 329 312 289 304 298 230 315 314 307 321 330 174 162 87 49 282 273 91 328 204 161 130 162 176 179 213 229 55 221 193 167 167 119 157 196 182 182 163 136 199 244 161 157 172 159 149 178 202 213 188 157 165 245 215 163 165 184 197 192 153 183 249 352 313 304 124 188 274 275 301 10 125 222 219 202 192 186 185 185 185 187 190 190
316 317 315 316 317 314 298 271 266 262 281 312 319 317 324 329 140 111 63 133 257 351 60 24 187 248 33 108 216 281 316 340 20 261 141 156 189 122 158 201 161 162 182 164 202 232 192 187 178 156 158 204 217 203 168 169 204 228 161 137 108 104 126 130 136 160 73 35 263 258 189 194 275 286 327 29 121 233 225 214 201 191 190 189 187 186 189 187
315 312 312 314 312 313 303 261 258 271 314 324 324 322 326 354 92 65 62 232 278 0 7 5 31 312 21 79 268 281 282 303 338 108 106 138 208 72 113 138 100 122 189 298 234 236 273 216 151 148 182 200 202 194 180 187 198 149 109 99 58 41 50 65 81 101 90 271 258 243 195 182 273 285 265 203 219 225 223 218 199 196 195 192 190 185 181 181
312 310 310 305 299 301 295 270 263 284 340 330 327 328 343 57 69 86 189 247 288 346 349 358 10 335 349 343 267 254 225 277 327 129 145 129 87 70 63 72 81 83 16 320 289 299 326 356 179 224 214 188 170 202 223 213 200 119 75 85 74 350 19 37 2 49 130 252 263 249 174 152 200 258 249 253 258 242 231 217 198 195 194 190 189 179 165 167
312 310 305 293 278 259 248 246 244 305 319 325 331 355 77 78 21 166 240 289 329 345 336 332 333 331 328 315 242 225 193 224 224 155 158 145 143 175 171 164 168 97 343 255 262 330 301 227 242 267 238 186 170 228 306 331 156 136 106 95 103 325 23 26 300 244 209 250 257 220 132 152 217 241 249 281 282 262 243 233 217 205 198 188 173 162 149 143
314 312 304 290 266 247 244 248 267 287 305 322 347 41 84 92 227 225 286 322 334 315 304 296 316 312 310 334 325 259 210 207 203 156 144 134 150 196 215 173 164 146 183 212 193 321 301 295 283 261 273 200 166 190 260 244 164 156 151 142 145 127 78 284 265 255 256 259 269 24 133 215 269 256 250 285 290 274 252 242 239 219 196 177 145 137 131 122
317 315 305 289 265 255 254 251 251 274 307 347 52 68 94 140 232 240 320 296 267 309 315 307 315 313 314 350 332 330 35 282 184 134 129 114 140 201 234 246 181 146 126 155 167 175 188 312 255 191 245 185 171 200 200 159 153 171 166 139 145 155 148 204 220 202 249 260 294 331 148 180 217 246 251 274 295 299 269 220 186 125 142 149 135 129 130 130
323 319 301 284 270 272 259 232 225 235 313 44 66 79 135 199 250 221 274 278 293 325 317 316 331 350 345 316 313 349 25 284 51 113 143 151 166 195 195 212 204 142 122 162 219 177 151 252 253 235 212 159 191 222 151 113 126 210 137 109 152 183 154 162 189 172 187 220 288 300 220 203 210 263 291 310 333 351 24 86 109 112 131 137 133 132 130 124
329 325 299 273 266 298 232 191 183 179 147 73 72 95 181 208 220 151 205 292 313 315 321 332 16 44 345 315 321 342 325 269 61 90 169 180 194 199 185 210 198 166 155 163 209 188 127 260 276 314 301 207 204 204 156 152 184 176 132 167 217 171 129 120 190 100 82 144 255 305 283 296 326 308 313 1 18 29 53 60 85 115 138 140 141 138 119 104
332 340 330 288 253 115 143 153 151 151 111 78 96 187 221 218 184 175 235 318 278 300 12 4 334 19 357 322 305 318 329 345 32 67 208 251 241 193 185 212 182 188 193 167 205 202 146 265 283 302 275 272 239 147 95 140 144 125 182 203 186 81 92 111 155 10 49 174 266 342 293 299 10 231 307 28 31 29 52 62 65 61 100 145 141 127 118 126
324 333 350 356 127 144 138 134 136 127 83 73 91 232 232 209 190 205 266 341 295 344 61 173 270 350 39 330 282 298 330 344 337 349 175 238 256 176 168 185 176 208 213 177 188 233 144 273 291 255 234 291 351 84 4 339 78 138 177 170 108 119 174 98 135 150 123 202 286 328 303 272 193 217 326 30 23 19 32 43 53 45 36 33 19 56 104 119
310 333 0 358 149 152 139 132 130 82 67 73 107 248 229 233 256 250 275 335 341 51 47 221 230 349 340 272 246 289 320 269 245 250 152 186 240 217 176 176 169 243 221 170 166 226 122 128 288 273 242 314 360 47 239 297 345 41 115 93 43 135 161 161 146 158 162 172 247 312 321 278 223 232 334 347 348 25 49 49 58 57 55 52 29 10 43 86
291 82 1 330 158 155 148 137 81 54 71 122 191 210 230 249 270 271 276 284 226 192 229 223 233 304 293 272 246 261 287 215 189 189 200 200 213 250 257 198 151 66 94 128 136 127 75 109 250 283 324 349 344 320 222 201 167 88 127 185 310 89 128 160 99 84 130 147 172 171 286 271 249 262 338 326 329 22 87 78 72 67 72 75 64 37 17 39
26 90 339 326 154 156 144 72 38 61 90 143 197 226 274 291 292 289 278 247 211 228 226 211 234 245 249 283 274 243 275 303 193 182 236 242 132 197 271 259 156 156 85 82 92 142 123 132 196 283 343 347 258 258 230 185 172 159 162 185 177 131 125 134 267 299 107 122 161 158 204 268 267 306 341 336 351 41 96 101 88 75 81 88 88 82 61 47
75 93 317 327 154 156 100 46 10 63 119 176 233 238 292 317 297 285 289 280 217 235 256 224 236 231 223 245 254 247 308 319 257 209 205 213 169 210 305 350 22 106 110 106 194 196 141 108 116 255 258 247 262 263 243 100 113 126 136 154 141 123 121 131 191 228 112 92 149 123 149 268 271 61 48 42 51 51 75 93 82 65 67 82 98 110 103 74
109 99 346 142 161 151 45 43 323 6 159 255 286 250 268 289 281 297 313 325 269 254 334 272 236 230 230 244 266 285 337 324 277 282 212 202 183 281 307 311 348 51 61 105 260 237 99 75 57 305 295 302 300 301 329 23 57 55 6 44 111 139 134 140 172 173 133 155 154 89 302 265 285 25 79 101 68 54 71 90 87 79 67 69 83 101 99 85
128 124 70 154 181 192 42 161 294 340 280 317 349 312 299 250 222 291 295 291 290 334 342 277 261 265 268 286 294 285 315 19 358 359 23 70 10 339 337 325 144 73 28 213 213 230 189 95 90 56 0 347 341 337 340 352 27 57 331 331 357 89 97 115 134 87 108 183 145 131 215 259 277 44 89 105 81 69 76 85 90 96 94 85 74 68 78 82
98 88 4 204 193 156 102 177 153 156 280 352 2 320 328 312 257 245 235 264 274 238 269 270 274 275 285 339 343 307 321 192 263 4 31 6 336 335 353 11 110 110 111 178 48 71 133 129 114 113 127 171 204 269 265 287 335 343 328 345 355 39 100 144 132 93 171 218 99 136 204 253 189 106 86 91 87 79 75 64 52 54 70 79 72 61 57 57
111 98 333 339 15 67 88 164 111 122 226 63 21 316 329 318 300 264 204 231 266 300 280 275 309 327 326 357 359 326 341 333 334 33 35 353 331 323 334 356 68 92 93 63 39 63 103 61 87 122 143 182 200 231 239 222 38 347 331 352 354 336 341 100 102 133 186 153 68 213 207 152 129 113 91 87 77 68 62 57 52 47 53 60 61 62 58 54
109 114 150 153 359 27 23 4 67 88 142 140 94 338 311 304 312 310 305 268 274 321 315 298 12 37 349 334 345 327 347 2 17 31 16 352 354 311 306 328 42 37 71 68 29 64 98 54 65 98 86 338 250 270 275 112 84 46 355 354 353 339 350 76 108 168 152 126 234 241 176 139 128 92 74 72 64 60 55 53 56 53 50 54 58 64 65 60
100 150 160 146 142 86 35 12 87 86 54 178 142 6 335 333 342 334 319 324 334 359 31 345 1 26 337 292 246 336 2 18 16 6 356 358 5 313 310 340 31 13 45 69 20 81 107 91 97 94 60 29 14 357 25 85 99 74 44 22 6 358 14 72 120 204 117 140 204 182 135 118 75 45 47 56 66 73 68 59 62 58 50 49 51 55 58 56
77 117 340 21 110 150 153 11 94 82 48 291 308 11 350 347 347 309 276 336 350 348 54 21 328 336 340 321 138 83 19 56 17 325 340 352 318 289 326 353 2 0 45 63 31 82 102 89 111 116 79 31 14 3 31 67 94 68 43 30 18 17 31 54 70 34 49 102 132 118 103 75 38 39 49 56 68 82 76 62 60 58 52 52 53 52 51 53
103 143 166 50 69 64 33 35 67 70 10 330 352 345 332 344 327 304 278 120 36 320 357 22 317 317 338 17 78 88 130 145 147 239 277 352 332 351 2 330 330 348 22 59 26 33 80 107 139 97 78 9 353 358 19 50 89 74 39 21 13 18 27 34 45 36 33 69 94 98 96 71 38 49 56 50 52 68 66 55 55 56 55 64 66 59 54 54
102 143 131 105 67 351 2 27 65 83 15 352 357 304 321 304 297 308 296 219 173 205 280 302 315 326 353 29 68 98 191 173 173 208 205 202 260 331 339 293 321 343 357 51 27 15 66 106 51 71 85 327 335 355 1 26 75 65 32 12 359 360 18 17 15 7 355 114 114 108 115 124 109 85 67 52 52 63 60 52 55 57 51 60 69 67 61 56
90 69 67 102 80 348 1 29 46 80 52 285 250 271 291 287 296 331 322 279 225 214 242 253 352 5 343 349 55 109 239 225 213 223 200 184 223 273 280 273 273 276 246 100 58 29 90 116 96 77 102 296 319 330 341 19 49 22 8 358 336 321 325 347 5 359 341 16 129 130 141 117 109 98 82 65 60 64 60 51 53 58 56 58 62 64 63 58